Date String (YYYY-MM-DD hh:mm:ss) UTC,Instrument flags,Ambient pressure (hPa),Sample flow (lpm),Bypass flow (lpm),Sample temperature (°C),Ambient temperature (°C),ASC tube jacket temperature (°C),LED temperature (°C),Box temperature (°C),Sample RH (%),Span deviation,Mass concentration (μg/m³),Mass concentration (μg/m³),Mass concentration (μg/m³)
DateTimeUTC,F1_M11,P_M11,Q1_M11,Q2_M11,T1_M11,T2_M11,T3_M11,T4_M11,T5_M11,U1_M11,ZSPAN_M11,X2_M11,X0_M11,X1_M11
2021-12-27 20:00:00,,0811.1,4.98,0.00,23.8,23.1,00.0,32.7,25.6,09.1,0000.0,0003.51,0015.47,0001.96
2021-12-27 20:01:00,,0811.0,5.01,0.00,23.8,23.1,00.0,32.7,25.6,09.1,0000.0,0003.52,0015.34,0001.94
2021-12-27 20:02:00,,0811.0,4.99,0.00,23.8,23.1,00.0,32.7,25.6,09.1,0000.0,0003.54,0014.78,0001.94
2021-12-27 20:03:00,,0811.0,5.01,0.00,23.9,23.2,00.0,32.7,25.6,09.0,0000.0,0003.59,0016.34,0001.92
2021-12-27 20:04:00,,0811.0,5.00,0.00,23.9,23.2,00.0,32.7,25.6,09.1,0000.0,0003.59,0017.27,0001.91
2021-12-27 20:05:00,,0811.0,5.00,0.00,23.9,23.2,00.0,32.7,25.6,09.1,0000.0,0003.58,0017.49,0001.89
2021-12-27 20:06:00,,0811.0,4.99,0.00,23.9,23.2,00.0,32.7,25.6,09.1,0000.0,0003.56,0015.66,0001.87
2021-12-27 20:07:00,,0811.0,5.01,0.00,23.9,23.2,00.0,32.8,25.6,09.1,0000.0,0003.57,0016.05,0001.88
2021-12-27 20:08:00,,0811.0,5.00,0.00,23.9,23.2,00.0,32.8,25.7,09.0,0000.0,0003.57,0015.33,0001.89
2021-12-27 20:09:00,,0811.0,5.00,0.00,23.9,23.2,00.0,32.8,25.7,09.0,0000.0,0003.54,0015.12,0001.88
2021-12-27 20:10:00,,0811.0,5.00,0.00,23.9,23.2,00.0,32.8,25.7,09.0,0000.0,0003.49,0014.96,0001.85
2021-12-27 20:11:00,,0811.0,5.00,0.00,23.9,23.2,00.0,32.8,25.7,09.0,0000.0,0003.45,0014.98,0001.83
2021-12-27 20:12:00,,0810.9,5.00,0.00,23.9,23.2,00.0,32.8,25.7,09.0,0000.0,0003.44,0015.58,0001.82
2021-12-27 20:13:00,,0811.0,5.01,0.00,23.9,23.3,00.0,32.8,25.7,09.0,0000.0,0003.43,0016.59,0001.81
2021-12-27 20:14:00,,0811.0,4.98,0.00,24.0,23.3,00.0,32.8,25.7,09.0,0000.0,0003.38,0015.96,0001.80
2021-12-27 20:15:00,,0810.9,5.00,0.00,24.0,23.3,00.0,32.8,25.7,09.0,0000.0,0003.34,0013.83,0001.80
2021-12-27 20:16:00,,0810.9,5.00,0.00,24.0,23.3,00.0,32.9,25.8,09.0,0000.0,0003.33,0012.78,0001.80
2021-12-27 20:17:00,,0810.8,4.99,0.00,24.0,23.3,00.0,32.9,25.8,09.0,0000.0,0003.35,0012.82,0001.80
2021-12-27 20:18:00,,0810.8,5.00,0.00,24.0,23.3,00.0,32.9,25.8,08.9,0000.0,0003.36,0011.84,0001.79
2021-12-27 20:19:00,,0810.7,5.01,0.00,24.0,23.3,00.0,32.9,25.8,08.9,0000.0,0003.37,0011.49,0001.79
2021-12-27 20:20:00,,0810.7,4.98,0.00,24.0,23.3,00.0,32.9,25.9,08.9,0000.0,0003.40,0012.31,0001.79
2021-12-27 20:21:00,,0810.6,5.02,0.00,24.0,23.3,00.0,32.9,25.9,08.9,0000.0,0003.42,0013.40,0001.80
2021-12-27 20:22:00,,0810.6,5.00,0.00,24.0,23.3,00.0,32.9,25.9,08.8,0000.0,0003.39,0013.80,0001.80
2021-12-27 20:23:00,,0810.6,5.00,0.00,24.0,23.3,00.0,32.9,25.8,08.8,0000.0,0003.41,0015.51,0001.80
2021-12-27 20:24:00,,0810.6,5.00,0.00,24.0,23.3,00.0,32.9,25.8,08.8,0000.0,0003.40,0015.27,0001.81
2021-12-27 20:25:00,,0810.5,4.99,0.00,24.0,23.3,00.0,32.9,25.9,08.8,0000.0,0003.37,0014.37,0001.80
2021-12-27 20:26:00,,0810.4,5.01,0.00,24.0,23.3,00.0,32.9,25.9,08.8,0000.0,0003.37,0014.67,0001.79
2021-12-27 20:27:00,,0810.3,4.99,0.00,24.0,23.3,00.0,32.9,25.9,08.8,0000.0,0003.34,0015.11,0001.77
2021-12-27 20:28:00,,0810.3,5.01,0.00,24.0,23.3,00.0,32.9,25.9,08.8,0000.0,0003.30,0015.32,0001.79
2021-12-27 20:29:00,,0810.3,5.01,0.00,24.0,23.3,00.0,32.9,25.9,08.8,0000.0,0003.28,0015.37,0001.77
2021-12-27 20:30:00,,0810.3,5.00,0.00,24.0,23.3,00.0,32.9,25.9,08.8,0000.0,0003.27,0015.41,0001.77
2021-12-27 20:31:00,,0810.3,5.00,0.00,24.1,23.3,00.0,32.9,25.9,08.8,0000.0,0003.24,0014.40,0001.76
2021-12-27 20:32:00,,0810.3,5.01,0.00,24.1,23.3,00.0,33.0,25.9,08.8,0000.0,0003.27,0013.38,0001.75
2021-12-27 20:33:00,,0810.3,4.99,0.00,24.1,23.3,00.0,33.0,25.9,08.8,0000.0,0003.27,0012.61,0001.74
2021-12-27 20:34:00,,0810.4,5.00,0.00,24.1,23.3,00.0,33.0,25.9,08.8,0000.0,0003.23,0010.10,0001.73
2021-12-27 20:35:00,,0810.3,5.00,0.00,24.1,23.3,00.0,33.0,25.9,08.8,0000.0,0003.23,0009.63,0001.73
2021-12-27 20:36:00,,0810.3,5.00,0.00,24.1,23.3,00.0,33.0,25.9,08.8,0000.0,0003.24,0010.36,0001.73
2021-12-27 20:37:00,,0810.3,5.02,0.00,24.1,23.3,00.0,33.0,25.9,08.8,0000.0,0003.23,0010.56,0001.73
2021-12-27 20:38:00,,0810.2,5.00,0.00,24.1,23.3,00.0,33.0,25.9,08.8,0000.0,0003.23,0010.33,0001.74
2021-12-27 20:39:00,,0810.2,4.99,0.00,24.1,23.3,00.0,33.0,25.9,08.8,0000.0,0003.25,0010.03,0001.74
2021-12-27 20:40:00,,0810.2,5.01,0.00,24.1,23.4,00.0,33.0,25.9,08.8,0000.0,0003.25,0010.07,0001.74
2021-12-27 20:41:00,,0810.2,5.00,0.00,24.1,23.4,00.0,33.0,26.0,08.8,0000.0,0003.21,0010.05,0001.75
2021-12-27 20:42:00,,0810.2,5.01,0.00,24.1,23.4,00.0,33.0,25.9,08.8,0000.0,0003.18,0010.56,0001.77
2021-12-27 20:43:00,,0810.2,5.00,0.00,24.1,23.4,00.0,33.0,26.0,08.8,0000.0,0003.14,0011.54,0001.79
2021-12-27 20:44:00,,0810.2,5.00,0.00,24.1,23.4,00.0,33.0,26.0,08.8,0000.0,0003.19,0012.43,0001.80
2021-12-27 20:45:00,,0810.1,4.99,0.00,24.1,23.4,00.0,33.0,26.0,08.9,0000.0,0003.19,0014.17,0001.80
2021-12-27 20:46:00,,0810.1,5.00,0.00,24.1,23.4,00.0,33.0,26.0,08.8,0000.0,0003.11,0013.86,0001.80
2021-12-27 20:47:00,,0810.1,5.01,0.00,24.2,23.4,00.0,33.0,26.0,08.8,0000.0,0003.13,0013.53,0001.80
2021-12-27 20:48:00,,0809.9,5.00,0.00,24.2,23.4,00.0,33.0,26.0,08.8,0000.0,0003.11,0014.35,0001.81
2021-12-27 20:49:00,,0809.9,5.00,0.00,24.2,23.4,00.0,33.0,26.0,08.8,0000.0,0003.15,0014.77,0001.83
2021-12-27 20:50:00,,0809.9,4.99,0.00,24.2,23.4,00.0,33.1,26.0,08.8,0000.0,0003.15,0015.07,0001.82
2021-12-27 20:51:00,,0809.9,5.01,0.00,24.2,23.4,00.0,33.1,26.0,08.8,0000.0,0003.14,0015.27,0001.82
2021-12-27 20:52:00,,0809.9,5.00,0.00,24.2,23.3,00.0,33.1,26.0,08.8,0000.0,0003.20,0015.87,0001.82
2021-12-27 20:53:00,,0810.0,4.99,0.00,24.2,23.4,00.0,33.1,26.0,08.9,0000.0,0003.23,0016.14,0001.83
2021-12-27 20:54:00,,0809.9,5.01,0.00,24.2,23.4,00.0,33.1,26.0,08.9,0000.0,0003.23,0015.51,0001.81
2021-12-27 20:55:00,,0809.9,4.99,0.00,24.2,23.4,00.0,33.1,26.0,08.9,0000.0,0003.17,0014.75,0001.80
2021-12-27 20:56:00,,0809.9,5.01,0.00,24.2,23.4,00.0,33.1,26.0,08.9,0000.0,0003.14,0013.42,0001.79
2021-12-27 20:57:00,,0809.8,4.99,0.00,24.2,23.4,00.0,33.1,26.0,08.9,0000.0,0003.16,0013.28,0001.80
2021-12-27 20:58:00,,0809.8,5.01,0.00,24.2,23.4,00.0,33.1,26.0,08.9,0000.0,0003.19,0012.95,0001.79
2021-12-27 20:59:00,,0809.8,5.01,0.00,24.2,23.4,00.0,33.1,26.0,08.9,0000.0,0003.24,0013.06,0001.78
